It's Saturday,
February 27th, 2021
User not logged in
[Run Race Header Image][Run Race logo]
  
Race webcasting is attempted by race directors and their support staff. Please remember that conditions under which they're working may make it difficult to post timely webcast updates... your interest and patience is appreciated!
Race Information
Race Name:Kettle 100 Endurance Runs - 2011
Location:LaGrange
State:Wisconsin, United States
 button: button: Webcast Autoplay
Event Information
Name of Event:Kettle 100 solo
Distance:100 Miles
Started Date/Time:Saturday June 4th, 2011, 5:59:55.32 am
button: Assign Numbers 

Event Information
Name of Event:Kettle 100 solo
Distance:100 Kilometers
Started Date/Time:Saturday June 4th, 2011, 5:59:55.32 am
button: Assign Numbers  
Checkpoint:Emma Carlin Outbound
Distance:15.8 Miles
Gun Start Time:Saturday June 4th, 2011 5:59:55.32 am
Calculate Chip Start Time:< not set >
Y or N... Calculate splits based upon participant chip start time?
Allow Early Chip Start Time:< not set >
Y or N... Allow participants a chip start time prior to gun start?
Pos Race
Number
NameAgeSexTimePace 
1133Joshua Wopata29M2:14:23.78:30.4
2229Jeff Friedman27M2:19:00.58:47.9
3210John Cash37M2:19:17.98:49.0
4220Scott DeWitt33M2:21:03.18:55.6
5228Gordon Freeman26M2:26:09.49:15.0
6214Matthew Condron44M2:26:19.29:15.6
7257Michael Quaranto33M2:29:02.69:26.0
8250adam mcroberts36M2:32:38.59:39.7
9202Matt Aro32M2:34:11.29:45.5
10212Jeff Christian37M2:34:29.89:46.7
11209Bruce Carriedo53M2:35:14.29:49.5
12223Steve Emmert43M2:35:17.39:49.7
13268Paul Wilkerson35M2:35:27.89:50.4
14237Paul Johnson25M2:35:56.39:52.2
15241Mark Kasmer29M2:39:22.110:05.2
16238Stuart Johnson51M2:40:47.110:10.6
17269tom wilson44M2:45:29.210:28.4
18203Alec Bath41M2:45:30.110:28.5
19216Shelley Cook36F2:46:03.910:30.6
20243Lee Krautkramer45M2:46:34.210:32.5
21219Michael Davenport52M2:46:44.910:33.2
22267Steve Wessel55M2:47:26.410:35.8
23265Nicholas Ventimiglia28M2:47:40.110:36.7
24260steven sjolund60M2:48:57.810:41.6
25235William Hutchinson41M2:51:43.910:52.1
26226Darren Fortney43M2:51:46.310:52.3
27245Maureen Mahr32F2:52:44.610:56.0
28201Lucia Alzaga35F2:55:16.011:05.6
29254Mark Nowotny51M2:58:24.311:17.5
30252Danny Miller31M3:03:30.411:36.9
31112LARRY SWANSON60M3:03:57.611:38.6
32207Jeffery Bott39M3:04:07.711:39.2
33236piotr janczyk39M3:04:57.411:42.4
34270Brian Woods46M3:05:51.911:45.8
35242Gabriel Kohn38M3:06:56.811:49.9
36206Kelcy Boettcher34F3:08:08.211:54.4
37261Tyler Stewart22M3:13:34.312:15.1
38239Dorn Petty52M3:16:41.912:27.0
39232Michele Hartwig44F3:18:12.212:32.7
40215Steve Conn46M3:18:13.312:32.7
41262art sundry52M3:19:42.712:38.4
42244Craig LeBlanc42M3:20:04.212:39.8
43211Katie Cech36F3:20:05.212:39.8
44233Lynn Hawbaker62M3:24:08.112:55.2
45208Bonnie Busch53F3:25:10.212:59.1
46264Gary Tinker47M3:25:44.813:01.3
47222Steve Eich46M3:25:46.913:01.4
48251Lee Meyer50M3:25:48.313:01.5
49213Elizabeth Coll48F3:26:56.913:05.9
50253Jim Muresan46M3:28:03.313:10.1
51231Dennis Hanna55M3:29:55.513:17.2
52225Mary Flaws44F3:29:56.913:17.3
53258Chris Roderick33M3:32:52.213:28.4
54205Mark Berry52M3:38:45.013:50.7
55256Frank Powers51M3:39:22.513:53.1
56221kay drew48F3:42:27.014:04.7
57227Mo Fraley48F3:49:18.114:30.8
58249Katie McCullough42F3:49:19.414:30.8
59217Donna Creditor50F3:55:27.314:54.1
60271Erika Woods37F4:10:16.715:50.4
61234Rob Hughes33M4:10:18.115:50.5
62224Joseph Faas60M4:17:29.216:17.8

Event Information
Name of Event:Kettle 100 relay
Distance:100 Miles
Started Date/Time:Saturday June 4th, 2011, 5:59:55.32 am
button: Assign Numbers 

Event Information
Name of Event:Kettle 38 night fun run
Distance:38 Miles
Started Date/Time:Saturday June 4th, 2011, 7:59:58.00 pm
button: Assign Numbers 
2004-2021 : All rights reserved
Terms and Conditions